[[{"header":{"parameterUnit":"m.s-1","parameterCategory":1,"la1":30.2991,"la2":30.254,"lo1":-89.0895,"lo2":-89.0444,"dy":0.0017,"dx":0.0017,"nx":28,"ny":28,"refTime":"2023-10-14T03:00:00:Z","depth":0,"parameterNumber":2,"parameterNumberName":"U-component_of_WINDS"},"data":[0,0,0,0,0,0,0,0,0,0,0,0,0,0,0,0,0,0,0,0,0,0,0,0,0,0,0,0,0,0,0,0,0,0,0,0,0,0,0,0,0,0,0,0,0,0,0,0,0,0,0,0,0,0,0,0,0,0,-0.8186,-0.8186,0,-0.8172,-0.8172,-0.8172,-0.8147,-0.8147,-0.8146,-0.8146,-0.8131,-0.8131,-0.8131,0,0,0,0,0,0,0,0,0,0,0,0,0,-0.8192,-0.8192,-0.8186,-0.8186,-0.8186,-0.8172,-0.8172,-0.8172,-0.8147,-0.8147,-0.8146,-0.8146,-0.8131,-0.8131,-0.8131,0,0,0,0,0,0,0,0,0,0,0,0,0,-0.8185,-0.8192,-0.8186,-0.8172,-0.8171,-0.8172,-0.8172,-0.8172,-0.8148,-0.8147,-0.8146,-0.8146,-0.8131,-0.8131,-0.8131,-0.8145,0,0,-0.8131,-0.8131,0,0,0,0,0,0,0,0,-0.8185,-0.8185,-0.8174,-0.8173,-0.8172,-0.8161,-0.8168,-0.8163,-0.8148,-0.8156,-0.8146,-0.8145,-0.8141,-0.8141,-0.8139,-0.8144,-0.8144,-0.8131,-0.8131,-0.8131,-0.8131,0,0,0,0,0,0,0,-0.8186,-0.8185,-0.8181,-0.8174,-0.8173,-0.8166,-0.8165,-0.8167,-0.8153,-0.8156,-0.8154,-0.8152,-0.8141,-0.8139,-0.8139,-0.8143,-0.8131,-0.8131,-0.8131,-0.8131,-0.8159,-0.8159,0,0,0,0,0,0,-0.8189,-0.8186,-0.8181,-0.818,-0.8177,-0.8167,-0.8165,-0.8165,-0.8153,-0.815,-0.8153,-0.8151,-0.814,-0.8139,-0.8138,-0.8153,-0.8131,-0.8131,-0.8131,-0.8158,-0.8159,-0.8159,0,0,0,0,0,0,-0.8189,-0.8188,-0.8182,-0.8182,-0.8181,-0.8167,-0.8168,-0.8165,-0.8164,-0.8151,-0.8148,-0.8154,-0.8139,-0.8138,-0.8143,-0.8153,-0.8131,-0.8131,-0.8157,-0.8158,-0.8159,-0.8184,0,0,0,0,0,0,-0.8189,-0.8189,-0.8194,-0.8183,-0.8181,-0.8187,-0.8168,-0.8165,-0.8164,-0.8162,-0.8152,-0.8149,-0.8139,-0.8143,-0.8143,-0.8152,-0.8131,-0.8156,-0.8157,-0.8159,-0.8182,-0.8186,-0.8189,0,0,0,0,0,-0.8189,-0.8201,-0.8194,-0.8194,-0.8187,-0.8188,-0.8187,-0.8174,-0.8165,-0.817,-0.8161,-0.815,-0.8152,-0.8144,-0.8144,-0.8153,-0.8155,-0.8157,-0.8159,-0.8181,-0.8185,-0.8189,0,0,0,0,0,0,-0.8214,-0.82,-0.8192,-0.82,-0.8195,-0.8184,-0.819,-0.8179,-0.8177,-0.8175,-0.8159,-0.8157,-0.8164,-0.8159,-0.8151,-0.8166,-0.8152,-0.8153,-0.8169,-0.8173,-0.8176,-0.8177,-0.8131,0,0,0,0,0,-0.822,-0.8222,-0.8209,-0.8218,-0.8216,-0.8204,-0.8203,-0.8194,-0.8188,-0.8186,-0.8178,-0.8173,-0.8172,-0.8172,-0.8171,-0.8182,-0.8179,-0.8188,-0.8191,-0.8194,-0.8195,-0.82,-0.8204,-0.8165,-0.8165,-0.8165,0,0,-0.8233,-0.8226,-0.8228,-0.8223,-0.8218,-0.822,-0.8202,-0.8205,-0.8206,-0.8186,-0.8191,-0.8185,-0.8178,-0.8186,-0.8189,-0.8182,-0.8205,-0.8196,-0.8198,-0.8198,-0.8202,-0.8206,-0.8209,-0.8166,-0.8166,-0.8165,0,0,-0.8259,-0.8253,-0.826,-0.8255,-0.8248,-0.824,-0.8241,-0.8231,-0.8226,-0.8231,-0.8216,-0.8217,-0.8217,-0.8212,-0.821,-0.8233,-0.8222,-0.8233,-0.825,-0.8255,-0.8258,-0.8261,-0.8269,-0.8272,-0.8235,-0.8235,-0.8235,0,-0.8276,-0.8278,-0.8265,-0.8268,-0.8267,-0.8249,-0.8256,-0.8252,-0.8245,-0.8244,-0.8236,-0.8235,-0.8229,-0.8236,-0.8241,-0.824,-0.8241,-0.8234,-0.8259,-0.8262,-0.8264,-0.8271,-0.8275,-0.8236,-0.8236,-0.8236,-0.8236,0,-0.83,-0.8302,-0.8308,-0.8302,-0.8301,-0.8306,-0.8293,-0.8294,-0.8284,-0.8277,-0.8281,-0.8273,-0.827,-0.8271,-0.8262,-0.8276,-0.8272,-0.8262,-0.8248,-0.8269,-0.8276,-0.8279,-0.8238,-0.8238,-0.8237,-0.8237,0,0,-0.834,-0.8326,-0.8329,-0.8325,-0.8316,-0.8317,-0.8322,-0.8319,-0.8319,-0.8315,-0.8318,-0.8318,-0.8308,-0.8306,-0.8296,-0.8301,-0.8319,-0.829,-0.8289,-0.8295,-0.8334,-0.8342,-0.8346,-0.8312,-0.8312,-0.8313,-0.8335,0,-0.8363,-0.837,-0.8358,-0.8367,-0.8369,-0.8352,-0.8356,-0.8351,-0.8343,-0.8343,-0.8335,-0.8335,-0.8323,-0.8321,-0.8325,-0.8316,-0.8327,-0.8315,-0.8314,-0.8315,-0.8317,-0.8349,-0.8357,-0.8379,-0.8337,-0.8338,-0.8338,0,-0.8391,-0.8388,-0.8398,-0.8388,-0.8388,-0.8392,-0.8388,-0.8388,-0.8382,-0.8376,-0.8373,-0.8362,-0.8365,-0.8352,-0.8356,-0.8348,-0.8347,-0.8343,-0.8343,-0.8343,-0.8328,-0.8349,-0.8385,-0.8388,-0.8342,-0.8342,-0.8342,0,-0.8419,-0.8418,-0.8423,-0.8421,-0.841,-0.8413,-0.8408,-0.8401,-0.84,-0.8396,-0.8395,-0.8392,-0.8391,-0.8389,-0.8377,-0.8368,-0.8382,-0.8368,-0.8377,-0.8378,-0.8381,-0.8381,-0.8417,-0.8381,-0.8381,-0.8381,-0.8381,0,-0.8447,-0.8453,-0.8436,-0.8439,-0.8446,-0.8432,-0.8439,-0.8433,-0.8427,-0.8428,-0.8414,-0.8416,-0.84,-0.84,-0.8391,-0.8395,-0.8395,-0.839,-0.8388,-0.8391,-0.8392,-0.8391,-0.8389,-0.8382,-0.8382,-0.8381,-0.8381,0,-0.8479,-0.8468,-0.8473,-0.8462,-0.8459,-0.8465,-0.8455,-0.8457,-0.8449,-0.8451,-0.8451,-0.8438,-0.8438,-0.8426,-0.8422,-0.8416,-0.8424,-0.8419,-0.8427,-0.8425,-0.8435,-0.8435,-0.8472,-0.8476,-0.8437,-0.8438,-0.8438,0,-0.8498,-0.8502,-0.8491,-0.8492,-0.8488,-0.8488,-0.8487,-0.8473,-0.8472,-0.8465,-0.8469,-0.8467,-0.8464,-0.8464,-0.8454,-0.8452,-0.8446,-0.8459,-0.8446,-0.8449,-0.8446,-0.8446,-0.8446,-0.8462,-0.8463,-0.8463,-0.8463,0,-0.8531,-0.8525,-0.8524,-0.8521,-0.852,-0.8517,-0.8513,-0.8514,-0.8498,-0.8498,-0.8497,-0.8496,-0.8492,-0.8491,-0.8486,-0.8481,-0.847,-0.8468,-0.847,-0.8474,-0.8478,-0.8476,-0.8435,-0.8467,-0.8467,-0.8466,-0.8466,-0.8466,-0.8557,-0.856,-0.8553,-0.8552,-0.8548,-0.8544,-0.8546,-0.8538,-0.8537,-0.8533,-0.8525,-0.8525,-0.8518,-0.8511,-0.8507,-0.8507,-0.85,-0.8503,-0.8504,-0.8505,-0.8507,-0.8478,-0.8506,-0.8506,-0.8506,-0.8506,-0.8506,0,-0.859,-0.8584,-0.8583,-0.8578,-0.8577,-0.8567,-0.8562,-0.8562,-0.8562,-0.8557,-0.8555,-0.8554,-0.8552,-0.8542,-0.8539,-0.854,-0.8535,-0.854,-0.854,-0.8539,-0.8513,-0.8512,-0.8544,-0.8544,-0.8544,-0.8544,-0.8544,-0.8544,-0.8606,-0.8611,-0.8605,-0.8607,-0.8601,-0.8602,-0.86,-0.8596,-0.8592,-0.8591,-0.859,-0.8583,-0.8575,-0.8572,-0.8569,-0.8566,-0.8566,-0.8573,-0.8568,-0.8544,-0.8541,-0.8537,-0.8535,-0.8573,-0.8573,-0.8593,-0.8593,-0.8594]},{"header":{"parameterUnit":"m.s-1","parameterCategory":1,"la1":30.2991,"la2":30.254,"lo1":-89.0895,"lo2":-89.0444,"dy":0.0017,"dx":0.0017,"nx":28,"ny":28,"refTime":"2023-10-14T03:00:00:Z","depth":0,"parameterNumber":3,"parameterNumberName":"V-component_of_WINDS"},"data":[0,0,0,0,0,0,0,0,0,0,0,0,0,0,0,0,0,0,0,0,0,0,0,0,0,0,0,0,0,0,0,0,0,0,0,0,0,0,0,0,0,0,0,0,0,0,0,0,0,0,0,0,0,0,0,0,0,0,-0.5278,-0.5281,0,-0.5504,-0.5506,-0.5509,-0.5612,-0.5611,-0.5611,-0.5611,-0.5843,-0.5849,-0.5855,0,0,0,0,0,0,0,0,0,0,0,0,0,-0.4936,-0.4941,-0.5278,-0.5281,-0.5284,-0.5503,-0.5506,-0.5509,-0.5612,-0.5611,-0.5611,-0.5611,-0.5841,-0.5848,-0.5856,0,0,0,0,0,0,0,0,0,0,0,0,0,-0.5115,-0.4943,-0.5277,-0.5361,-0.5371,-0.5503,-0.5506,-0.551,-0.5612,-0.5611,-0.5611,-0.5611,-0.5838,-0.5848,-0.5857,-0.5923,0,0,-0.5886,-0.5891,0,0,0,0,0,0,0,0,-0.5105,-0.5127,-0.5346,-0.5356,-0.5367,-0.5529,-0.5471,-0.5649,-0.5612,-0.552,-0.5611,-0.5611,-0.5739,-0.5757,-0.58,-0.5934,-0.5944,-0.5887,-0.5893,-0.5897,-0.59,0,0,0,0,0,0,0,-0.5092,-0.5118,-0.5367,-0.5349,-0.5362,-0.5387,-0.5412,-0.5505,-0.5629,-0.5528,-0.5536,-0.5562,-0.5744,-0.579,-0.5806,-0.5947,-0.5887,-0.5895,-0.5901,-0.5905,-0.6146,-0.6146,0,0,0,0,0,0,-0.5066,-0.5107,-0.536,-0.5374,-0.5232,-0.5394,-0.5422,-0.5477,-0.5628,-0.5651,-0.5562,-0.5565,-0.5774,-0.5795,-0.5814,-0.5902,-0.5897,-0.5906,-0.5912,-0.6145,-0.6146,-0.6147,0,0,0,0,0,0,-0.5058,-0.5088,-0.5351,-0.5243,-0.5278,-0.54,-0.5462,-0.5482,-0.5528,-0.5653,-0.5676,-0.5586,-0.5775,-0.5801,-0.5895,-0.5911,-0.591,-0.5919,-0.6144,-0.6145,-0.6146,-0.6075,0,0,0,0,0,0,-0.5048,-0.5084,-0.5111,-0.5243,-0.5284,-0.5428,-0.5463,-0.5487,-0.5544,-0.5551,-0.5682,-0.5703,-0.5776,-0.588,-0.5904,-0.5924,-0.5927,-0.6144,-0.6145,-0.6146,-0.6077,-0.6074,-0.6071,0,0,0,0,0,-0.5035,-0.5082,-0.5111,-0.5141,-0.5319,-0.5428,-0.5452,-0.5535,-0.5545,-0.5572,-0.5653,-0.5699,-0.5905,-0.5889,-0.5917,-0.594,-0.6143,-0.6144,-0.6146,-0.6078,-0.6074,-0.6071,0,0,0,0,0,0,-0.495,-0.5101,-0.5135,-0.5226,-0.5313,-0.5445,-0.5483,-0.5529,-0.5615,-0.5619,-0.5718,-0.5747,-0.5832,-0.5895,-0.5875,-0.6011,-0.6028,-0.6035,-0.5967,-0.5964,-0.5961,-0.5945,-0.5934,0,0,0,0,0,-0.4941,-0.5017,-0.5145,-0.5213,-0.5255,-0.5361,-0.5411,-0.5468,-0.5562,-0.56,-0.5687,-0.5778,-0.5863,-0.5917,-0.6002,-0.6086,-0.6116,-0.6115,-0.6112,-0.6109,-0.6115,-0.6164,-0.6165,-0.6151,-0.6151,-0.6151,0,0,-0.4924,-0.5016,-0.5058,-0.5198,-0.5272,-0.5348,-0.5391,-0.547,-0.5528,-0.5612,-0.5707,-0.5773,-0.5881,-0.5969,-0.6013,-0.6025,-0.6125,-0.6111,-0.6108,-0.6116,-0.6165,-0.6166,-0.6167,-0.6152,-0.6152,-0.6152,0,0,-0.4933,-0.501,-0.5075,-0.5148,-0.526,-0.533,-0.5345,-0.547,-0.5518,-0.5613,-0.5678,-0.5748,-0.5892,-0.5966,-0.6022,-0.6057,-0.6102,-0.6081,-0.6067,-0.6113,-0.6114,-0.6116,-0.6128,-0.6132,-0.6086,-0.6086,-0.6086,0,-0.4899,-0.5016,-0.5103,-0.5178,-0.5237,-0.5316,-0.5382,-0.5449,-0.5582,-0.5621,-0.5632,-0.5815,-0.5893,-0.6,-0.6008,-0.6051,-0.6071,-0.6068,-0.6107,-0.611,-0.6112,-0.6125,-0.613,-0.6083,-0.6083,-0.6083,-0.6084,0,-0.4968,-0.5048,-0.5087,-0.5214,-0.5277,-0.5347,-0.5444,-0.5498,-0.5547,-0.5616,-0.5712,-0.5808,-0.5913,-0.5943,-0.5993,-0.6057,-0.6061,-0.6088,-0.6107,-0.6109,-0.6123,-0.6128,-0.6078,-0.6079,-0.608,-0.6081,0,0,-0.4932,-0.5103,-0.5116,-0.5174,-0.5302,-0.5366,-0.5439,-0.5542,-0.5586,-0.5675,-0.5739,-0.5858,-0.5884,-0.5947,-0.6006,-0.6047,-0.6068,-0.607,-0.6074,-0.6066,-0.6144,-0.6123,-0.6127,-0.6098,-0.6099,-0.61,-0.6135,0,-0.4959,-0.5093,-0.5172,-0.5275,-0.5349,-0.5424,-0.5488,-0.5573,-0.5638,-0.5711,-0.5784,-0.5867,-0.5895,-0.5934,-0.5977,-0.6056,-0.6085,-0.6054,-0.6159,-0.6162,-0.6131,-0.6135,-0.6114,-0.6142,-0.6141,-0.6142,-0.6143,0,-0.5009,-0.5095,-0.5204,-0.5323,-0.5357,-0.5413,-0.5513,-0.5582,-0.568,-0.5725,-0.5794,-0.5853,-0.5933,-0.5944,-0.6056,-0.6033,-0.608,-0.6125,-0.6128,-0.6142,-0.6153,-0.6149,-0.6153,-0.6157,-0.6152,-0.6151,-0.6151,0,-0.4971,-0.5115,-0.5199,-0.5246,-0.5386,-0.5423,-0.5484,-0.5581,-0.5637,-0.5725,-0.5762,-0.5857,-0.591,-0.5982,-0.6064,-0.6065,-0.6168,-0.6186,-0.6207,-0.6205,-0.6227,-0.6225,-0.6238,-0.6255,-0.6255,-0.6255,-0.6255,0,-0.4993,-0.5058,-0.5184,-0.5235,-0.5309,-0.5398,-0.5469,-0.5535,-0.5621,-0.5687,-0.5757,-0.5817,-0.5922,-0.5995,-0.606,-0.6142,-0.6165,-0.6204,-0.6221,-0.6199,-0.6194,-0.6232,-0.6232,-0.6256,-0.6256,-0.6256,-0.6256,0,-0.4965,-0.5051,-0.5148,-0.5272,-0.5305,-0.5353,-0.546,-0.5513,-0.5581,-0.5663,-0.5688,-0.5795,-0.5885,-0.5974,-0.6095,-0.6138,-0.622,-0.6242,-0.6187,-0.6196,-0.6213,-0.621,-0.6252,-0.6263,-0.6271,-0.627,-0.627,0,-0.4974,-0.5025,-0.5154,-0.5202,-0.5261,-0.5338,-0.5396,-0.5486,-0.5542,-0.5657,-0.5696,-0.579,-0.5871,-0.601,-0.6099,-0.6192,-0.6217,-0.6226,-0.6232,-0.6207,-0.6218,-0.6214,-0.622,-0.6223,-0.6222,-0.6222,-0.6222,0,-0.4981,-0.5021,-0.5101,-0.5195,-0.5261,-0.534,-0.5422,-0.5458,-0.5563,-0.5623,-0.5715,-0.5778,-0.59,-0.5993,-0.6096,-0.6158,-0.6208,-0.6219,-0.6229,-0.6207,-0.6173,-0.6192,-0.618,-0.6218,-0.6218,-0.6218,-0.6219,-0.6219,-0.4972,-0.502,-0.5118,-0.5205,-0.5275,-0.5349,-0.5405,-0.5479,-0.5557,-0.5664,-0.5712,-0.5804,-0.59,-0.6043,-0.6104,-0.6178,-0.6191,-0.6205,-0.6209,-0.6211,-0.6206,-0.616,-0.6197,-0.6197,-0.6197,-0.6197,-0.6197,0,-0.4983,-0.5049,-0.5127,-0.5239,-0.5306,-0.5345,-0.5437,-0.5491,-0.5572,-0.5657,-0.5734,-0.5839,-0.5929,-0.6024,-0.612,-0.6161,-0.6186,-0.6183,-0.6182,-0.6195,-0.6189,-0.6171,-0.6161,-0.6161,-0.6161,-0.6161,-0.6161,-0.6161,-0.4996,-0.508,-0.5131,-0.5251,-0.5317,-0.5408,-0.5457,-0.5525,-0.5593,-0.5707,-0.5782,-0.5843,-0.5933,-0.6035,-0.6119,-0.6145,-0.6178,-0.6168,-0.62,-0.6193,-0.6196,-0.6198,-0.6182,-0.6174,-0.6174,-0.6201,-0.6201,-0.6201]}]]